Location: Fairmont
(43.6520°N, 94.4610°W)
Time: 19:45:08
(UTC-05:00)

Daily predictions for brighter satellites

Satellite Brightness Start Highest point End
(mag) Time Altitude Azimuth Time Altitude Azimuth Time Altitude Azimuth
Cosmos 1400 Rocket 2.9 18:47:25 10° NNW 18:51:28 85° WSW 18:55:24 10° S
CSL-04 Rocket 4.3 18:48:44 10° S 18:54:00 61° WSW 18:59:16 10° NNW
COSMO-SKYMED 1 3.2 18:51:11 10° NNE 18:55:12 35° E 18:59:10 10° SSE
CZ-4C R/B 2.8 18:50:44 10° S 18:55:24 35° ESE 19:00:37 10° NE
Cosmos 2322 Rocket 4.4 18:51:51 10° NW 18:56:43 31° WSW 19:01:35 10° SSW
Cosmos 2151 2.9 18:52:45 10° N 18:57:03 80° E 19:01:18 10° S
Cosmos 2058 2.9 18:54:11 10° N 18:58:23 81° E 19:02:31 10° S
Cosmos 2098 Rocket 4.3 18:54:24 10° SE 18:58:38 30° E 19:03:47 10° NNE
Abrixas 2.7 18:58:34 10° SSW 19:00:30 30° SSE 19:02:09 12° E
COSMOS 2428 2.8 18:55:19 10° NNW 19:00:55 55° ENE 19:06:28 10° SE
Cosmos 2366 rocket 4.2 18:55:59 10° S 19:02:12 82° W 19:08:23 10° N
FENGYUN 3A 4.3 18:57:48 10° SE 19:02:39 35° ENE 19:07:32 10° N
CORIOLIS 4.4 18:58:08 10° S 19:03:32 78° WSW 19:09:00 10° NNW
Cosmos 2333 Rocket 2.9 18:58:25 10° N 19:03:35 33° NE 19:08:44 10° ESE
Cosmos 1805 Rocket 4.3 19:01:25 10° NNE 19:05:21 31° ENE 19:09:17 10° SE
Cosmos 44 Rocket 3.4 19:01:20 10° SSW 19:05:54 53° ESE 19:10:29 10° NE
Cosmos 2219 3.7 19:00:39 10° S 19:05:58 41° ESE 19:11:18 10° NE
MOS 1 4.3 19:03:21 10° SSE 19:08:57 67° ENE 19:14:37 10° N
Cosmos 158 Rocket 4.0 19:05:40 10° S 19:10:39 62° ESE 19:15:49 10° NNE
Cosmos 2297 Rocket 3.8 19:10:16 10° SE 19:12:53 13° E 19:14:05 13° E
ERS-2 2.7 19:09:18 10° S 19:12:58 63° WSW 19:16:39 10° NNW
GRACE-2 3.5 19:13:38 10° S 19:16:09 63° E 19:18:42 10° N
Cosmos 1048 Rocket 4.0 19:11:24 10° S 19:16:24 57° ESE 19:21:26 10° NNE
APEX 2.4 19:13:21 10° SSW 19:16:25 66° ESE 19:19:10 10° NNE
YAOGAN 1 2.8 19:13:17 10° S 19:17:36 76° WSW 19:21:58 10° NNW
Cosmos 1633 Rocket 4.1 19:15:44 10° NNE 19:19:22 24° ENE 19:22:59 10° SE
Cosmos 1726 2.7 19:16:36 10° SSE 19:19:59 34° E 19:23:21 10° NNE
CZ-4 R/B 2.7 19:17:30 10° S 19:21:32 46° W 19:25:32 10° NNW
Cosmos 1420 Rocket 4.2 19:16:15 10° NNW 19:21:35 79° WSW 19:26:51 10° SSE
GRACE-1 3.5 19:19:17 10° S 19:21:51 85° E 19:24:27 10° N
EO 1 Del DPAF 3.2 19:18:43 10° NNE 19:22:35 87° ESE 19:26:26 10° SSW
SKYMED 3 4.5 19:20:59 10° NNE 19:25:21 75° ESE 19:29:41 10° S
NOAA 12 4.1 19:26:58 10° SSE 19:32:14 68° ENE 19:37:32 10° N
Cosmos 2219 Rocket 2.2 19:27:51 10° NNW 19:33:26 62° ENE 19:38:59 10° SE
Cosmos 1000 Rocket 4.4 19:28:26 10° N 19:34:42 75° E 19:40:50 10° SSE
Cosmos 1934 Rocket 4.2 19:30:01 10° SSE 19:36:04 48° E 19:42:08 10° NNE
Cosmos 1821 Rocket 3.9 19:31:47 10° S 19:37:51 65° E 19:44:05 10° NNE
METEOR-M 4.4 19:32:45 10° S 19:38:05 73° WSW 19:43:27 10° NNW
Cosmos 2221 2.6 19:34:14 10° S 19:38:33 81° W 19:42:56 10° N
Cosmos 2084 3.2 19:34:55 10° NNW 19:38:39 55° NE 19:40:52 23° ESE
Cosmos 1315 Rocket 4.0 19:36:03 10° NNW 19:39:59 46° W 19:43:56 10° SSW
ALOS 2.2 19:36:22 10° SSE 19:41:01 76° ENE 19:45:42 10° N
Thor Agena Rocket 3.8 19:38:00 10° NNE 19:42:50 42° E 19:47:37 10° S
Cosmos 2239 Rocket 4.4 19:37:08 10° S 19:43:13 71° E 19:49:22 10° NNE
SKYMED 2 3.9 19:39:01 10° N 19:43:21 70° WNW 19:47:39 10° SSW
USA 267 4.5 19:48:33 19° ESE 19:49:00 19° ESE 19:53:23 10° SSE
Cosmos 1331 Rocket 4.2 19:44:01 10° N 19:49:06 49° ENE 19:52:42 18° SE
SJ-6B 3.0 20:01:34 44° ENE 20:01:34 44° ENE 20:04:52 10° N
BREEZE-M DEB (TANK) 4.1 19:40:57 10° WNW 20:01:31 79° NNE 20:04:20 32° ESE
Lacrosse 5 rocket 3.6 20:01:27 10° NNW 20:03:42 14° N 20:04:48 13° NNE
Cosmos 2123 Rocket 3.9 20:01:15 10° N 20:07:31 77° E 20:13:48 10° SSE
Aureole 2 Rocket 3.6 20:04:01 10° NNW 20:07:52 51° WSW 20:11:49 10° S
In-Cosmos 22 Rocket 4.2 20:02:50 10° N 20:08:37 72° E 20:14:25 10° SSE
MOS 1-B Rocket 4.2 20:06:25 31° ESE 20:08:42 45° ENE 20:14:39 10° N
H-2A R/B 2.6 20:07:18 26° SSE 20:09:23 77° ENE 20:13:20 10° N
Cosmos 44 4.3 20:06:04 10° WSW 20:10:08 39° NW 20:13:49 12° NNE
Cosmos 2237 Rocket 2.1 20:05:07 10° NNW 20:10:49 66° ENE 20:13:39 30° SE
Cosmos 1605 Rocket 3.9 20:06:23 10° S 20:12:23 62° E 20:18:22 10° NNE
Cosmos 1470 Rocket 4.1 20:09:00 10° N 20:12:26 39° NE 20:12:26 39° NE
SL-8 R/B 4.3 20:10:43 10° W 20:15:24 48° N 20:16:43 38° NE
Abrixas rocket 3.0 20:13:23 10° WNW 20:16:04 45° NNW 20:16:04 45° NNW
Cosmos 1302 Rocket 4.1 20:13:23 10° N 20:18:29 51° ENE 20:18:55 49° E
Cosmos 2227 Rocket 2.2 20:13:21 10° S 20:18:52 58° ESE 20:21:11 34° NE
SWAS 4.3 20:14:49 10° SSW 20:19:02 69° ESE 20:19:09 69° ESE
SL-16 R/B 2.8 20:18:16 10° NNW 20:23:15 37° NE 20:23:15 37° NE
NOSS 0 Rocket 4.0 20:17:34 10° NNW 20:23:44 75° WSW 20:28:59 15° SSE
Cosmos 1300 3.3 20:20:12 10° SSW 20:23:56 55° W 20:27:44 10° N
USA 234 4.3 20:23:45 25° NE 20:25:59 31° NNE 20:31:35 10° NW
Sich 1 3.8 20:22:43 10° NNW 20:26:59 52° W 20:31:16 10° S
Spot 2 Rocket 4.4 20:29:34 33° NNE 20:29:34 33° NNE 20:32:50 10° N
Cosmos 494 Rocket 3.8 20:24:40 10° SSW 20:29:47 90° ESE 20:33:04 23° NNE
Resurs 01 Rocket 3.1 20:35:06 25° N 20:35:06 25° N 20:37:07 10° N
Cosmos 1980 3.8 20:29:36 10° NNW 20:35:15 75° WSW 20:37:55 33° S
ATLAS 5 CENTAUR R/B 4.2 20:32:38 10° N 20:35:38 14° NNE 20:35:38 14° NNE
Meteor 2-17 Rocket 4.4 20:30:17 10° S 20:36:12 58° E 20:42:11 10° NNE
Meteor 2-3 Rocket 3.6 20:36:35 10° N 20:42:22 75° E 20:42:51 70° ESE
CZ-4C R/B 3.3 20:38:43 10° WSW 20:43:46 41° NW 20:48:07 17° NNE
USA 32 3.9 20:39:10 10° N 20:44:27 88° W 20:45:20 63° S
Cosmos 1447 Rocket 4.3 20:38:48 10° N 20:45:10 82° E 20:47:22 44° SSE
Cosmos 2333 Rocket 3.4 20:42:34 10° NW 20:47:57 42° WSW 20:53:15 10° S
Cosmos 2297 Rocket 2.1 20:50:25 10° SSW 20:56:00 86° W 20:56:00 86° W
Envisat 3.9 21:05:02 40° NNW 21:05:02 40° NNW 21:08:16 10° NNW
Cosmos 2251 Rocket 3.9 21:00:40 10° SSW 21:05:54 62° WNW 21:06:05 61° NW
Cosmos 2082 3.8 21:00:55 10° SSW 21:06:19 72° W 21:06:19 72° W
USA 267 4.4 21:35:57 32° SW 21:35:57 32° SW 21:39:13 10° SW
Cosmos 2237 Rocket 4.4 21:50:27 10° WNW 21:54:16 19° W 21:55:32 17° WSW
Cosmos 2227 Rocket 4.2 21:58:45 10° WSW 22:03:07 24° NW 22:03:07 24° NW
SL-16 R/B 4.2 22:02:31 10° NW 22:05:08 24° WNW 22:05:08 24° WNW
